Temperature
7 6 5 5 5 6 6 6 6 6 6 5 5 5 5 6 5 5 4 4 4 4 4 4 4 4 4 4 5 5 5 5 5 6 6 6 7 7 7 7 7 8 8 8
7 5 5 6 6 6 5 5 5 5 6 5 4 4 5 5 4 4 3 3 3 3 3 3 4 4 4 4 4 4 5 5 5 5 5 6 6 6 7 7 7 7 7 7
6 5 5 5 5 5 5 4 4 4 4 5 4 4 4 4 4 4 3 3 3 3 3 3 3 3 3 3 3 4 4 4 4 5 5 5 5 6 6 6 6 7 7 7
5 5 5 4 4 4 4 4 4 3 3 3 4 2 4 4 3 3 3 3 2 2 2 2 2 2 3 3 3 3 4 4 4 4 4 4 4 5 5 5 6 6 6 6
4 4 3 4 4 3 3 4 3 3 3 2 3 2 3 3 3 2 2 2 2 1 1 2 2 2 2 2 2 3 3 3 3 4 4 4 4 4 5 5 5 5 6 6
4 4 3 3 3 3 3 3 3 3 3 2 3 2 2 2 2 2 2 1 1 1 1 1 1 1 1 2 2 2 2 2 3 3 3 3 4 4 4 4 5 5 5 5
4 3 3 3 2 3 2 2 2 2 2 2 3 2 1 2 2 1 1 1 0 0 0 1 1 1 1 1 1 1 1 2 2 2 2 3 3 3 4 4 4 4 5 5
3 3 2 2 1 1 2 2 1 1 2 3 2 1 1 1 1 1 1 0 -0 -0 -0 -0 0 0 0 1 1 1 1 1 1 1 2 2 2 3 3 3 4 4 4 4
2 2 2 2 2 1 1 1 1 1 1 1 2 2 1 1 0 0 -0 -1 -1 -1 -1 -1 -0 -0 -0 0 0 0 0 1 1 1 1 2 2 2 3 3 3 3 3 4
1 1 2 1 1 1 1 1 -0 -0 0 1 2 2 1 -0 -0 -1 -1 -1 -1 -1 -1 -1 -1 -1 -0 -0 -0 -0 -0 0 0 1 1 1 2 2 2 3 3 3 3 3
1 -0 1 0 -1 -1 -1 -1 -1 -0 -0 0 0 1 1 -0 -1 -1 -1 -1 -1 -2 -2 -1 -1 -1 -1 -1 -1 -1 -1 -0 -0 -0 0 1 1 1 2 2 2 2 2 3
0 -0 -1 0 -0 -0 -1 -1 -1 -2 -1 -1 -1 -0 -0 -1 -1 -1 -1 -1 -2 -2 -2 -2 -2 -1 -1 -1 -1 -1 -1 -1 -1 -1 -0 0 0 1 1 1 1 2 2 2
-1 -1 -1 0 -1 -2 -2 -2 -2 -2 -2 -2 -1 -1 -1 -1 -1 -1 -1 -2 -2 -2 -2 -2 -2 -2 -2 -2 -2 -2 -2 -1 -1 -1 -1 -1 -0 0 0 1 1 1 1 2
-1 -2 -2 -0 -0 -2 -2 -2 -2 -3 -3 -3 -2 -1 -1 -2 -2 -2 -2 -2 -2 -2 -3 -3 -3 -3 -2 -2 -2 -2 -2 -2 -2 -1 -1 -1 -1 -0 -0 0 0 1 1 1
-2 -3 -2 -2 -1 -2 -2 -2 -3 -4 -3 -3 -3 -2 -2 -2 -3 -2 -2 -2 -3 -3 -3 -3 -3 -3 -3 -3 -3 -3 -3 -3 -2 -2 -2 -1 -1 -1 -1 -0 -0 0 0 0
-2 -3 -3 -3 -2 -2 -2 -2 -3 -3 -3 -4 -3 -3 -2 -2 -2 -2 -2 -3 -3 -3 -4 -4 -4 -4 -4 -4 -3 -3 -3 -3 -3 -3 -2 -2 -2 -2 -1 -1 -1 -0 -0 -0
-3 -4 -3 -2 -2 -3 -3 -3 -3 -4 -4 -4 -4 -3 -3 -3 -3 -3 -3 -3 -4 -4 -4 -4 -4 -4 -4 -4 -4 -4 -4 -4 -4 -3 -3 -3 -3 -2 -2 -2 -2 -1 -1 -1
-4 -4 -3 -3 -3 -3 -2 -3 -3 -4 -4 -4 -4 -4 -3 -3 -3 -3 -3 -4 -4 -4 -5 -5 -5 -5 -5 -5 -5 -5 -5 -4 -4 -4 -4 -3 -3 -3 -3 -2 -2 -2 -2 -2
-4 -4 -4 -3 -3 -2 -2 -3 -4 -4 -4 -4 -4 -4 -3 -3 -4 -4 -4 -4 -5 -5 -5 -5 -5 -5 -5 -5 -5 -5 -5 -5 -5 -5 -4 -4 -4 -4 -3 -3 -3 -3 -3 -2
-5 -5 -5 -4 -4 -3 -2 -4 -4 -4 -5 -4 -4 -4 -4 -5 -6 -5 -4 -5 -5 -5 -5 -6 -6 -6 -6 -5 -6 -6 -6 -5 -5 -5 -5 -5 -5 -4 -4 -4 -4 -3 -3 -3
-6 -6 -6 -5 -4 -3 -4 -5 -4 -4 -4 -4 -4 -4 -5 -5 -6 -5 -5 -6 -6 -6 -6 -6 -6 -6 -6 -6 -6 -6 -6 -6 -6 -6 -5 -5 -5 -5 -5 -5 -4 -4 -4 -4
-6 -6 -6 -5 -5 -4 -5 -6 -5 -5 -4 -4 -4 -4 -5 -5 -6 -6 -6 -6 -7 -7 -6 -7 -7 -7 -7 -7 -7 -7 -6 -6 -6 -6 -6 -6 -5 -5 -5 -5 -5 -5 -5 -4
-5 -5 -4 -5 -4 -4 -4 -4 -4 -4 -5 -5 -5 -5 -6 -6 -6 -7 -7 -7 -7 -7 -7 -7 -7 -7 -7 -7 -7 -7 -7 -7 -7 -7 -6 -6 -6 -6 -6 -6 -6 -5 -5 -5
-5 -5 -5 -5 -5 -4 -4 -4 -4 -5 -5 -5 -6 -6 -6 -7 -7 -7 -7 -8 -8 -8 -8 -8 -8 -8 -8 -8 -8 -8 -8 -7 -7 -7 -7 -7 -6 -6 -6 -6 -6 -6 -6 -6
-4 -6 -6 -6 -6 -5 -4 -5 -5 -5 -5 -6 -6 -6 -7 -7 -8 -8 -8 -8 -8 -8 -8 -8 -8 -8 -8 -8 -8 -8 -8 -8 -8 -8 -7 -7 -7 -7 -7 -7 -7 -7 -6 -6
-5 -6 -6 -6 -5 -6 -5 -5 -5 -6 -6 -6 -7 -7 -7 -8 -8 -8 -8 -8 -9 -9 -9 -9 -9 -9 -9 -9 -8 -8 -8 -8 -8 -8 -8 -8 -8 -8 -7 -7 -7 -7 -7 -7
Wind_Speed
1 2 2 2 2 4 6 5 6 5 2 4 7 9 8 4 3 2 3 3 2 2 2 2 2 2 2 3 3 3 2 2 1 1 1 1 1 1 1 1 1 1 1 1
0 2 3 4 4 3 4 5 6 4 4 6 7 9 6 4 3 1 1 2 3 3 3 3 3 2 2 3 3 3 3 3 2 1 1 2 2 2 2 1 1 1 2 2
2 3 4 4 4 4 4 4 5 5 7 6 6 6 4 3 3 1 0 1 2 2 3 3 3 3 3 4 3 4 3 3 2 1 1 1 1 1 1 2 2 2 3 3
1 2 4 4 4 4 4 4 5 6 5 3 2 5 3 2 2 1 1 2 3 4 4 4 5 5 4 4 4 4 4 4 2 1 1 2 2 3 3 3 3 2 3 3
1 2 3 3 4 5 3 6 6 7 6 5 4 4 5 2 2 2 2 1 3 4 4 5 5 5 5 4 4 4 4 4 3 1 2 2 3 3 2 2 3 3 2 2
1 1 2 3 4 3 5 5 6 5 3 4 4 4 4 1 2 2 2 2 3 4 5 4 4 4 4 4 4 4 4 4 3 2 2 2 3 3 3 3 3 3 3 2
1 2 1 2 3 2 3 3 2 2 2 4 1 3 4 0 3 2 2 4 4 5 5 5 5 5 5 5 4 4 4 4 4 3 3 3 3 3 4 3 3 3 2 2
3 2 2 1 1 2 3 1 1 2 3 3 2 4 3 2 4 4 3 3 4 5 5 5 4 5 5 5 5 5 5 5 4 4 3 3 3 3 3 3 3 4 3 3
3 3 2 2 1 2 2 1 1 2 4 4 4 3 1 1 3 3 4 5 6 6 5 4 4 4 5 5 5 5 6 5 4 4 4 3 3 3 3 2 2 3 3 3
3 4 2 1 1 1 2 2 1 1 3 4 5 4 2 1 3 4 4 6 7 7 5 4 4 4 4 5 5 5 6 5 5 5 4 4 3 3 3 2 3 3 3 3
2 2 2 1 3 3 1 1 2 3 3 3 4 4 1 0 1 2 4 5 6 6 5 5 4 4 5 5 5 5 5 5 5 5 5 4 4 3 3 3 3 3 3 3
1 2 4 3 2 1 1 2 2 2 4 4 4 5 1 2 2 2 4 5 5 5 5 5 5 5 5 5 5 4 5 5 5 5 5 4 4 4 4 3 3 3 3 3
0 1 3 2 0 1 2 2 2 2 3 4 4 6 1 3 4 4 4 5 5 5 5 5 5 5 5 6 5 5 5 5 5 5 5 4 4 4 4 4 4 3 3 4
0 3 5 6 4 1 4 4 4 4 4 6 8 10 8 5 6 7 6 5 5 5 5 5 5 5 5 5 5 5 6 6 5 5 5 4 4 4 4 4 4 4 4 4
1 4 6 9 8 5 8 9 7 9 9 9 10 11 11 6 6 7 6 7 7 6 6 6 6 6 6 5 5 5 6 6 6 5 5 5 5 4 4 4 4 4 4 5
2 4 4 7 7 7 10 11 10 11 10 12 13 14 9 6 5 6 6 7 7 7 7 7 6 7 6 6 5 6 6 6 6 6 5 5 5 5 4 4 4 5 4 4
3 3 3 5 2 5 9 9 10 7 7 7 10 10 5 5 6 6 6 6 7 7 8 8 8 7 6 5 5 5 6 6 6 6 5 5 5 5 5 5 5 5 5 5
3 3 3 4 4 6 6 1 4 6 8 8 8 7 5 5 6 6 4 5 7 7 8 8 7 7 6 5 5 5 6 5 5 5 5 5 5 6 6 5 5 5 4 4
2 3 3 3 5 8 4 2 3 4 6 6 8 7 5 5 6 5 3 3 5 6 6 7 7 7 6 6 6 6 6 5 5 5 6 6 5 6 6 6 5 4 4 4
1 1 3 3 4 6 4 1 2 1 5 2 3 4 4 3 4 5 5 6 6 6 6 6 6 6 6 6 5 5 6 6 6 6 6 6 5 6 6 6 5 4 4 4
3 3 5 6 6 7 2 2 3 1 5 2 1 2 2 3 5 5 6 6 5 6 6 6 6 6 5 6 6 6 6 6 7 6 6 6 6 5 5 5 4 4 4 4
7 6 6 5 6 8 3 4 4 5 2 2 2 2 3 4 5 6 6 6 6 6 7 6 6 6 6 5 5 6 7 7 6 6 6 6 6 5 5 4 4 4 3 3
7 6 4 7 7 2 6 4 3 0 2 3 3 3 3 4 6 6 6 6 6 6 6 6 5 6 6 6 5 6 7 7 6 6 6 6 6 5 5 4 4 4 3 2
4 2 3 5 6 4 4 3 2 2 3 3 3 3 3 5 6 6 6 6 5 6 5 5 5 6 6 6 6 6 7 7 6 6 6 6 6 6 5 4 3 3 3 2
3 4 4 6 6 5 3 2 3 2 2 3 4 3 3 4 6 5 5 6 5 6 5 5 5 5 7 6 6 7 7 6 6 6 6 6 5 5 5 5 4 4 3 3
4 5 5 6 3 2 3 2 2 2 3 4 4 4 4 4 5 5 5 5 5 5 5 5 6 6 7 7 7 7 6 5 5 6 6 5 4 4 4 4 5 6 6 7
Wind_Direction
29 40 21 341 296 305 308 290 290 293 304 293 264 271 269 256 234 251 287 283 309 300 318 346 356 358 344 344 346 338 336 332 338 343 335 271 264 248 231 337 197 168 205 223
107 24 356 344 340 306 304 294 300 311 335 304 275 275 270 257 231 206 265 316 321 321 338 349 351 355 332 327 335 333 325 308 292 327 280 257 252 242 239 290 281 223 222 222
37 16 357 343 343 326 303 296 305 307 307 268 277 283 232 205 168 133 19 346 343 331 335 344 347 347 351 349 338 321 314 310 298 341 316 290 263 244 229 218 215 268 239 224
34 12 345 344 342 339 304 348 317 301 307 288 276 289 267 215 197 203 311 336 340 342 344 349 347 346 348 341 342 332 330 320 298 310 271 256 243 240 241 211 217 251 249 235
11 20 340 333 335 343 317 325 296 279 274 287 255 252 279 188 259 272 288 323 347 353 350 345 345 341 339 341 340 329 333 322 329 319 263 258 259 252 238 219 219 218 242 239
249 54 3 340 329 311 310 300 277 259 253 269 237 216 281 212 260 308 337 356 350 349 347 341 341 343 341 346 345 335 330 318 324 323 289 266 278 284 260 229 218 222 218 217
239 166 102 3 334 330 342 1 347 323 239 247 221 217 249 18 55 45 2 344 342 346 343 342 347 342 341 345 346 335 329 317 319 317 308 289 276 267 260 237 220 228 226 228
308 283 140 94 13 313 304 322 195 264 275 294 298 238 232 100 71 44 26 343 341 343 342 342 343 341 339 339 341 338 332 314 319 315 302 300 296 268 259 251 235 234 231 231
323 293 76 62 355 341 317 284 287 281 290 279 259 243 235 67 41 16 356 348 337 336 334 336 344 344 340 335 337 335 326 316 320 312 307 301 296 292 284 273 244 238 246 264
320 289 258 115 327 295 314 325 334 228 284 279 273 259 270 305 325 336 344 340 330 331 332 334 335 336 336 331 332 335 324 322 326 320 307 305 295 290 280 271 247 241 246 260
302 267 270 179 195 214 199 245 255 253 249 265 281 271 17 124 327 330 330 330 328 331 332 330 330 338 340 336 330 327 325 327 328 322 315 314 306 303 292 277 256 243 254 252
306 273 269 243 112 61 220 230 198 215 261 247 265 272 2 52 25 358 324 325 326 324 326 326 331 338 338 333 331 327 326 325 323 322 319 314 315 313 300 293 289 260 243 253
115 229 298 288 305 11 262 247 242 252 275 253 252 265 282 11 354 338 322 319 320 322 326 331 332 333 329 326 327 326 322 321 323 323 317 316 317 314 309 306 304 290 261 252
170 230 221 245 274 287 265 249 222 214 237 256 246 267 288 309 319 321 320 323 324 325 323 325 325 324 320 318 318 321 321 325 325 322 316 317 316 309 308 306 305 296 275 255
189 250 247 261 268 263 263 261 232 225 233 243 263 272 281 298 305 309 315 319 318 321 321 318 320 321 319 317 319 323 323 326 327 320 319 317 314 311 310 308 303 300 289 273
207 263 283 270 246 250 264 258 242 239 242 248 265 273 276 304 311 309 310 311 312 317 322 323 320 318 315 312 315 320 321 324 323 317 318 322 319 316 314 310 306 298 289 279
203 230 271 274 270 298 269 244 222 227 224 218 244 259 297 312 305 302 307 312 310 315 322 322 321 316 311 312 315 310 312 319 314 313 317 324 323 318 312 314 313 305 293 280
208 219 250 280 316 254 245 173 184 224 247 231 252 278 290 294 301 293 300 309 313 322 323 321 322 323 318 317 321 316 318 314 306 308 315 321 322 315 311 310 304 302 296 289
222 205 245 261 271 272 265 208 166 209 270 239 245 269 290 317 318 298 315 322 316 321 319 318 321 320 320 322 323 320 320 321 313 313 320 322 320 314 310 306 304 304 302 299
270 216 233 241 254 259 260 116 100 108 280 268 234 268 299 339 316 299 337 339 328 327 326 327 328 327 329 327 328 321 315 319 320 320 315 311 311 310 308 306 303 301 296 293
179 206 224 237 247 264 249 148 112 183 267 316 286 275 284 260 263 294 321 326 329 330 330 333 330 328 327 333 335 325 321 319 317 317 314 308 306 306 305 307 307 302 301 301
185 192 205 207 229 256 165 142 187 233 289 306 305 297 291 294 303 311 316 321 329 330 330 333 333 328 330 337 335 328 321 317 319 319 317 316 316 315 315 312 312 311 309 303
201 201 204 205 220 239 172 199 227 287 299 307 317 314 309 306 305 310 313 316 319 321 323 328 327 326 329 334 334 325 318 322 323 323 321 322 325 325 322 316 315 317 314 302
217 192 237 262 265 265 232 242 264 257 266 299 314 312 312 301 303 308 311 313 316 318 321 325 326 328 327 330 330 323 321 325 325 325 324 324 327 326 326 323 319 316 315 306
219 178 225 255 277 301 279 264 277 288 301 307 309 303 296 298 300 301 304 308 311 314 317 319 318 319 318 322 325 325 329 331 327 324 325 326 327 324 328 327 326 323 318 305
194 193 208 241 248 235 273 312 301 285 288 290 297 303 300 287 291 299 300 304 307 309 315 317 317 317 318 321 321 323 326 327 325 324 325 325 326 326 326 328 330 330 321 323
Height
1517 1520 1522 1521 1521 1520 1518 1518 1517 1516 1516 1517 1515 1513 1510 1509 1509 1510 1510 1510 1510 1510 1510 1510 1509 1509 1508 1508 1508 1509 1509 1509 1510 1511 1512 1513 1514 1516 1517 1519 1520 1522 1524 1525
1519 1522 1523 1521 1519 1520 1520 1520 1518 1516 1516 1517 1514 1510 1507 1507 1506 1507 1508 1508 1508 1507 1507 1507 1507 1506 1506 1506 1506 1506 1506 1507 1507 1507 1509 1510 1511 1513 1514 1516 1517 1519 1521 1522
1522 1526 1523 1522 1521 1520 1520 1521 1520 1520 1518 1514 1514 1509 1504 1503 1504 1505 1506 1507 1507 1506 1506 1505 1505 1504 1504 1503 1503 1503 1504 1503 1503 1504 1506 1508 1509 1510 1511 1512 1513 1516 1517 1519
1524 1525 1524 1523 1522 1522 1521 1520 1520 1521 1522 1519 1516 1518 1504 1501 1502 1503 1505 1505 1505 1505 1504 1504 1503 1503 1502 1501 1501 1501 1500 1500 1500 1501 1502 1504 1504 1505 1506 1508 1510 1512 1514 1515
1525 1526 1525 1525 1524 1524 1523 1521 1520 1519 1520 1522 1517 1520 1507 1501 1503 1503 1504 1504 1504 1503 1502 1502 1501 1500 1500 1499 1498 1497 1497 1497 1497 1497 1499 1500 1501 1502 1503 1505 1506 1508 1509 1511
1526 1526 1527 1527 1526 1525 1524 1521 1518 1517 1519 1525 1513 1516 1509 1505 1503 1502 1502 1503 1503 1502 1501 1500 1498 1498 1497 1496 1495 1495 1494 1494 1494 1494 1495 1496 1497 1498 1500 1500 1502 1504 1505 1507
1525 1527 1527 1528 1527 1526 1526 1528 1528 1525 1523 1518 1508 1511 1511 1504 1502 1502 1502 1502 1501 1500 1499 1497 1495 1494 1494 1493 1492 1492 1491 1491 1491 1490 1491 1492 1493 1495 1495 1496 1498 1500 1501 1502
1528 1528 1528 1529 1530 1532 1529 1530 1535 1533 1522 1514 1512 1512 1506 1502 1502 1502 1502 1502 1500 1499 1497 1495 1494 1493 1492 1491 1490 1489 1489 1488 1487 1487 1488 1489 1490 1491 1492 1493 1494 1496 1497 1498
1533 1530 1529 1529 1529 1530 1529 1531 1530 1533 1528 1527 1512 1503 1503 1501 1501 1502 1501 1501 1499 1497 1495 1494 1493 1492 1491 1489 1488 1488 1487 1486 1485 1484 1484 1485 1486 1487 1488 1489 1491 1492 1493 1494
1535 1536 1530 1529 1530 1531 1531 1531 1534 1535 1532 1523 1509 1504 1505 1504 1503 1502 1502 1500 1498 1496 1494 1492 1491 1490 1489 1487 1486 1485 1485 1483 1482 1481 1481 1481 1482 1483 1484 1485 1487 1487 1488 1490
1535 1538 1533 1531 1534 1533 1534 1534 1534 1532 1529 1528 1520 1512 1503 1503 1502 1502 1502 1500 1498 1496 1494 1492 1490 1489 1487 1486 1485 1484 1482 1481 1480 1479 1478 1478 1478 1479 1480 1481 1481 1483 1484 1485
1536 1538 1536 1530 1530 1530 1531 1532 1534 1538 1533 1527 1525 1516 1503 1501 1501 1501 1501 1500 1498 1496 1494 1491 1489 1487 1486 1484 1483 1481 1479 1478 1477 1476 1475 1474 1475 1476 1476 1477 1477 1479 1480 1481
1538 1540 1538 1529 1534 1535 1533 1531 1532 1534 1534 1529 1525 1515 1503 1502 1501 1501 1500 1498 1497 1495 1492 1490 1488 1486 1484 1482 1480 1479 1477 1476 1474 1473 1472 1471 1471 1472 1472 1473 1473 1474 1476 1477
1537 1539 1539 1532 1527 1531 1532 1531 1531 1533 1534 1527 1518 1510 1504 1503 1502 1500 1499 1497 1495 1494 1491 1489 1486 1484 1482 1480 1478 1476 1475 1473 1471 1470 1469 1468 1467 1468 1468 1469 1469 1470 1471 1472
1537 1538 1534 1530 1527 1527 1527 1526 1527 1529 1526 1525 1514 1509 1502 1502 1501 1500 1497 1495 1493 1491 1489 1487 1484 1482 1480 1478 1475 1473 1472 1470 1468 1468 1466 1464 1464 1464 1464 1465 1465 1466 1466 1467
1535 1537 1533 1529 1523 1523 1522 1519 1520 1521 1520 1518 1513 1507 1500 1500 1499 1498 1496 1494 1491 1489 1487 1485 1482 1480 1478 1475 1473 1470 1469 1466 1465 1464 1462 1461 1461 1460 1460 1460 1461 1461 1462 1462
1534 1537 1535 1527 1521 1523 1520 1511 1512 1513 1510 1511 1509 1503 1499 1499 1497 1496 1494 1492 1490 1487 1485 1482 1480 1477 1475 1473 1470 1468 1465 1463 1462 1460 1459 1458 1458 1457 1457 1456 1456 1456 1457 1457
1533 1534 1533 1529 1527 1527 1507 1503 1504 1506 1505 1504 1501 1499 1498 1497 1495 1493 1492 1490 1487 1485 1482 1479 1476 1474 1472 1470 1467 1465 1462 1460 1459 1458 1456 1455 1454 1454 1453 1452 1452 1452 1452 1453
1530 1533 1532 1529 1526 1513 1505 1503 1504 1506 1503 1498 1498 1496 1496 1495 1493 1490 1489 1488 1486 1483 1480 1477 1474 1471 1469 1467 1464 1462 1459 1458 1457 1454 1453 1452 1451 1450 1449 1448 1448 1448 1448 1448
1531 1532 1534 1529 1527 1516 1503 1503 1501 1504 1504 1495 1495 1495 1495 1494 1495 1490 1488 1486 1483 1481 1477 1474 1471 1469 1466 1464 1462 1460 1458 1456 1454 1452 1451 1450 1449 1447 1446 1445 1444 1444 1444 1444
1533 1533 1534 1529 1524 1510 1503 1502 1503 1508 1501 1495 1493 1493 1493 1493 1492 1489 1486 1483 1481 1478 1475 1472 1469 1466 1464 1462 1460 1458 1455 1453 1451 1450 1449 1447 1446 1444 1443 1442 1441 1441 1441 1441
1524 1526 1527 1524 1522 1512 1502 1502 1503 1500 1495 1494 1492 1492 1491 1490 1488 1486 1484 1481 1478 1475 1472 1469 1467 1464 1462 1460 1458 1455 1453 1451 1449 1447 1445 1444 1443 1442 1440 1439 1439 1438 1438 1438
1513 1512 1510 1511 1507 1499 1497 1496 1496 1495 1494 1492 1491 1490 1489 1487 1485 1483 1481 1478 1476 1473 1470 1468 1465 1462 1460 1458 1456 1453 1451 1449 1447 1444 1442 1441 1440 1439 1438 1437 1436 1435 1435 1435
1506 1505 1506 1504 1497 1495 1495 1494 1494 1493 1492 1490 1489 1488 1486 1485 1482 1480 1478 1476 1473 1471 1468 1466 1463 1460 1458 1456 1454 1452 1449 1447 1444 1442 1440 1438 1437 1436 1435 1434 1433 1433 1432 1432
1501 1502 1502 1500 1495 1493 1491 1491 1491 1490 1489 1488 1486 1485 1484 1482 1480 1478 1475 1473 1471 1468 1466 1464 1461 1458 1456 1454 1452 1450 1447 1445 1442 1439 1437 1436 1435 1434 1432 1431 1431 1430 1429 1430
1496 1498 1499 1495 1492 1492 1490 1488 1488 1487 1486 1485 1484 1482 1481 1480 1477 1475 1473 1471 1469 1466 1464 1462 1459 1457 1454 1452 1449 1447 1445 1443 1440 1438 1436 1434 1433 1432 1430 1429 1428 1428 1428 1427